Time,TemperatureF,DewpointF,PressureIn,WindDirection,WindDirectionDegrees,WindSpeedMPH,WindSpeedGustMPH,Humidity,HourlyPrecipIn,Conditions,Clouds,dailyrainin,SoftwareType,DateUTC
2013-01-26 00:04:00,42.8,31.9,29.88,SE,125,4.0,5.8,65,0.00,,,0.00,VWS V14.01,2013-01-26 08:04:00,
2013-01-26 00:09:00,42.8,31.9,29.88,ESE,111,3.6,5.8,65,0.00,,,0.00,VWS V14.01,2013-01-26 08:09:00,
2013-01-26 00:14:00,42.8,31.9,29.88,ESE,122,4.0,5.8,65,0.00,,,0.00,VWS V14.01,2013-01-26 08:14:00,
2013-01-26 00:19:00,42.8,31.9,29.88,East,94,3.6,5.8,65,0.00,,,0.00,VWS V14.01,2013-01-26 08:19:00,
2013-01-26 00:24:00,42.6,31.7,29.88,East,99,2.7,4.5,65,0.00,,,0.00,VWS V14.01,2013-01-26 08:24:00,
2013-01-26 00:29:00,42.6,31.7,29.88,East,97,0.0,4.9,65,0.00,,,0.00,VWS V14.01,2013-01-26 08:29:00,
2013-01-26 00:34:00,42.6,31.7,29.88,East,89,0.0,7.2,65,0.00,,,0.00,VWS V14.01,2013-01-26 08:34:00,
2013-01-26 00:39:00,42.4,31.9,29.88,ESE,103,4.5,6.3,66,0.00,,,0.00,VWS V14.01,2013-01-26 08:39:00,
2013-01-26 00:44:00,42.4,31.9,29.88,East,91,0.0,5.8,66,0.00,,,0.00,VWS V14.01,2013-01-26 08:44:00,
2013-01-26 00:49:00,42.4,31.9,29.88,ENE,77,5.8,6.3,66,0.00,,,0.00,VWS V14.01,2013-01-26 08:49:00,
2013-01-26 00:54:00,42.4,31.9,29.88,ESE,108,4.0,5.4,66,0.00,,,0.00,VWS V14.01,2013-01-26 08:54:00,
2013-01-26 00:59:00,42.4,31.9,29.88,SE,134,3.1,4.9,66,0.00,,,0.00,VWS V14.01,2013-01-26 08:59:00,
2013-01-26 01:04:00,42.4,31.9,29.88,East,83,2.2,6.3,66,0.00,,,0.00,VWS V14.01,2013-01-26 09:04:00,
2013-01-26 01:09:00,42.4,31.9,29.88,East,91,4.0,5.4,66,0.00,,,0.00,VWS V14.01,2013-01-26 09:09:00,
2013-01-26 01:14:00,42.4,31.9,29.88,East,98,3.6,5.8,66,0.00,,,0.00,VWS V14.01,2013-01-26 09:14:00,
2013-01-26 01:19:00,42.3,31.7,29.88,ESE,103,0.0,5.8,66,0.00,,,0.00,VWS V14.01,2013-01-26 09:19:00,
2013-01-26 01:24:00,42.3,31.7,29.88,East,94,5.8,5.8,66,0.00,,,0.00,VWS V14.01,2013-01-26 09:24:00,
2013-01-26 01:29:00,42.3,32.1,29.88,ESE,107,0.0,4.5,67,0.00,,,0.00,VWS V14.01,2013-01-26 09:29:00,
2013-01-26 01:34:00,42.4,32.3,29.88,ESE,113,0.0,4.9,67,0.00,,,0.00,VWS V14.01,2013-01-26 09:34:00,
2013-01-26 01:39:00,42.4,32.3,29.88,ESE,106,0.0,4.0,67,0.00,,,0.00,VWS V14.01,2013-01-26 09:39:00,
2013-01-26 01:44:00,42.6,32.4,29.88,East,99,0.0,0.0,67,0.00,,,0.00,VWS V14.01,2013-01-26 09:44:00,
2013-01-26 01:49:00,42.6,32.4,29.88,East,96,3.1,4.9,67,0.00,,,0.00,VWS V14.01,2013-01-26 09:49:00,
2013-01-26 01:55:00,42.6,32.4,29.88,East,92,0.0,4.0,67,0.00,,,0.00,VWS V14.01,2013-01-26 09:55:00,
2013-01-26 02:00:00,42.6,32.4,29.88,East,96,0.0,0.0,67,0.00,,,0.00,VWS V14.01,2013-01-26 10:00:00,
2013-01-26 02:05:00,42.6,32.4,29.88,East,92,0.0,0.0,67,0.00,,,0.00,VWS V14.01,2013-01-26 10:05:00,
2013-01-26 02:10:00,42.6,32.4,29.88,East,90,0.0,0.0,67,0.00,,,0.00,VWS V14.01,2013-01-26 10:10:00,
2013-01-26 02:15:00,42.4,32.3,29.88,East,86,0.0,5.4,67,0.00,,,0.00,VWS V14.01,2013-01-26 10:15:00,
2013-01-26 02:20:00,42.4,32.3,29.88,East,85,4.0,4.0,67,0.00,,,0.00,VWS V14.01,2013-01-26 10:20:00,
2013-01-26 02:25:00,42.4,32.3,29.88,East,79,4.0,5.8,67,0.00,,,0.00,VWS V14.01,2013-01-26 10:25:00,
2013-01-26 02:30:00,42.4,32.3,29.88,East,81,4.0,5.4,67,0.00,,,0.00,VWS V14.01,2013-01-26 10:30:00,
2013-01-26 02:35:00,42.4,32.3,29.88,East,90,3.6,5.8,67,0.00,,,0.00,VWS V14.01,2013-01-26 10:35:00,
2013-01-26 02:40:00,42.4,32.6,29.88,East,84,2.7,5.4,68,0.00,,,0.00,VWS V14.01,2013-01-26 10:40:00,
2013-01-26 02:45:00,42.3,32.5,29.85,East,101,0.0,5.4,68,0.00,,,0.00,VWS V14.01,2013-01-26 10:45:00,
2013-01-26 02:50:00,42.3,32.5,29.85,East,100,4.0,6.3,68,0.00,,,0.00,VWS V14.01,2013-01-26 10:50:00,
2013-01-26 02:55:00,42.3,32.5,29.85,East,89,2.7,5.4,68,0.00,,,0.00,VWS V14.01,2013-01-26 10:55:00,
2013-01-26 03:00:00,42.3,32.5,29.85,East,95,5.4,6.3,68,0.00,,,0.00,VWS V14.01,2013-01-26 11:00:00,
2013-01-26 03:05:00,42.3,32.5,29.85,East,89,4.0,8.3,68,0.00,,,0.00,VWS V14.01,2013-01-26 11:05:00,
2013-01-26 03:10:00,42.3,32.5,29.85,East,96,2.2,6.3,68,0.00,,,0.00,VWS V14.01,2013-01-26 11:10:00,
2013-01-26 03:15:00,42.3,32.5,29.85,NE,44,5.4,5.8,68,0.00,,,0.00,VWS V14.01,2013-01-26 11:15:00,
2013-01-26 03:20:00,42.3,32.5,29.85,NE,41,3.1,8.7,68,0.00,,,0.00,VWS V14.01,2013-01-26 11:20:00,
2013-01-26 03:25:00,42.3,32.5,29.85,ENE,69,0.0,5.8,68,0.00,,,0.00,VWS V14.01,2013-01-26 11:25:00,
2013-01-26 03:30:00,42.1,31.9,29.85,East,97,5.4,5.4,67,0.00,,,0.00,VWS V14.01,2013-01-26 11:30:00,
2013-01-26 03:35:00,42.3,32.1,29.85,East,92,2.7,4.0,67,0.00,,,0.00,VWS V14.01,2013-01-26 11:35:00,
2013-01-26 03:40:00,42.3,32.1,29.85,ENE,78,7.6,7.6,67,0.00,,,0.00,VWS V14.01,2013-01-26 11:40:00,
2013-01-26 03:45:00,42.3,31.7,29.85,East,100,3.1,4.9,66,0.00,,,0.00,VWS V14.01,2013-01-26 11:45:00,
2013-01-26 03:50:00,42.4,31.5,29.85,East,82,3.1,5.8,65,0.00,,,0.00,VWS V14.01,2013-01-26 11:50:00,
2013-01-26 03:55:00,42.4,31.1,29.85,NE,39,0.0,7.6,64,0.00,,,0.00,VWS V14.01,2013-01-26 11:55:00,
2013-01-26 04:00:00,42.6,30.9,29.85,East,91,2.7,5.8,63,0.00,,,0.00,VWS V14.01,2013-01-26 12:00:00,
2013-01-26 04:05:00,42.6,30.5,29.85,NE,52,4.0,5.8,62,0.00,,,0.00,VWS V14.01,2013-01-26 12:05:00,
2013-01-26 04:10:00,42.6,30.1,29.85,East,96,3.1,4.9,61,0.00,,,0.00,VWS V14.01,2013-01-26 12:10:00,
2013-01-26 04:15:00,42.6,30.1,29.85,ESE,102,4.9,5.8,61,0.00,,,0.00,VWS V14.01,2013-01-26 12:15:00,
2013-01-26 04:20:00,42.6,30.1,29.85,East,84,3.6,5.4,61,0.00,,,0.00,VWS V14.01,2013-01-26 12:20:00,
2013-01-26 04:25:00,42.4,30.0,29.85,ESE,114,0.0,5.8,61,0.00,,,0.00,VWS V14.01,2013-01-26 12:25:00,
2013-01-26 04:30:00,42.4,30.0,29.85,ESE,113,2.7,4.9,61,0.00,,,0.00,VWS V14.01,2013-01-26 12:30:00,
2013-01-26 04:35:00,42.4,30.4,29.85,ENE,78,3.6,5.8,62,0.00,,,0.00,VWS V14.01,2013-01-26 12:35:00,
2013-01-26 04:40:00,42.3,30.2,29.85,ENE,75,4.0,5.8,62,0.00,,,0.00,VWS V14.01,2013-01-26 12:40:00,
2013-01-26 04:45:00,42.3,30.6,29.85,ESE,107,3.1,5.4,63,0.00,,,0.00,VWS V14.01,2013-01-26 12:45:00,
2013-01-26 04:50:00,42.1,30.8,29.85,East,86,4.5,6.3,64,0.00,,,0.00,VWS V14.01,2013-01-26 12:50:00,
2013-01-26 04:55:00,42.1,30.8,29.85,East,83,3.6,6.3,64,0.00,,,0.00,VWS V14.01,2013-01-26 12:55:00,
2013-01-26 05:00:00,42.1,31.2,29.85,East,95,7.2,7.2,65,0.00,,,0.00,VWS V14.01,2013-01-26 13:00:00,
2013-01-26 05:05:00,42.1,31.6,29.85,East,84,3.6,6.3,66,0.00,,,0.00,VWS V14.01,2013-01-26 13:05:00,
2013-01-26 05:10:00,42.1,31.6,29.85,ESE,102,0.0,5.8,66,0.00,,,0.00,VWS V14.01,2013-01-26 13:10:00,
2013-01-26 05:15:00,42.1,31.6,29.85,ESE,116,4.0,6.3,66,0.00,,,0.00,VWS V14.01,2013-01-26 13:15:00,
2013-01-26 05:20:00,42.1,31.6,29.85,East,93,3.6,5.4,66,0.00,,,0.00,VWS V14.01,2013-01-26 13:20:00,
2013-01-26 05:25:00,42.1,31.6,29.85,East,97,0.0,6.3,66,0.00,,,0.00,VWS V14.01,2013-01-26 13:25:00,
2013-01-26 05:30:00,42.1,31.6,29.85,ESE,111,4.0,5.8,66,0.00,,,0.00,VWS V14.01,2013-01-26 13:30:00,
2013-01-26 05:35:00,41.9,31.4,29.85,East,96,3.6,5.8,66,0.00,,,0.00,VWS V14.01,2013-01-26 13:35:00,
2013-01-26 05:40:00,41.9,31.4,29.85,ESE,116,0.0,4.9,66,0.00,,,0.00,VWS V14.01,2013-01-26 13:40:00,
2013-01-26 05:45:00,41.9,31.8,29.85,East,97,3.6,5.4,67,0.00,,,0.00,VWS V14.01,2013-01-26 13:45:00,
2013-01-26 05:50:00,41.9,31.4,29.85,East,98,3.6,4.0,66,0.00,,,0.00,VWS V14.01,2013-01-26 13:50:00,
2013-01-26 05:55:00,41.9,31.4,29.85,East,87,3.1,5.8,66,0.00,,,0.00,VWS V14.01,2013-01-26 13:55:00,
2013-01-26 06:00:00,42.1,31.6,29.85,ESE,106,6.3,6.3,66,0.00,,,0.00,VWS V14.01,2013-01-26 14:00:00,
2013-01-26 06:05:00,41.9,31.4,29.85,East,87,3.6,5.8,66,0.00,,,0.00,VWS V14.01,2013-01-26 14:05:00,
2013-01-26 06:10:00,41.9,31.4,29.85,ESE,108,2.2,5.8,66,0.00,,,0.00,VWS V14.01,2013-01-26 14:10:00,
2013-01-26 06:16:00,41.9,31.4,29.85,East,88,2.7,5.8,66,0.00,,,0.00,VWS V14.01,2013-01-26 14:16:00,
2013-01-26 06:21:00,41.9,31.4,29.85,NE,50,5.4,7.6,66,0.00,,,0.00,VWS V14.01,2013-01-26 14:21:00,
2013-01-26 06:26:00,41.7,31.6,29.85,ENE,66,3.1,5.4,67,0.00,,,0.00,VWS V14.01,2013-01-26 14:26:00,
2013-01-26 06:31:00,41.7,31.6,29.85,ENE,75,2.2,5.8,67,0.00,,,0.00,VWS V14.01,2013-01-26 14:31:00,
2013-01-26 06:36:00,41.7,32.0,29.85,East,96,3.1,6.3,68,0.00,,,0.00,VWS V14.01,2013-01-26 14:36:00,
2013-01-26 06:41:00,41.7,32.0,29.85,East,81,4.0,8.3,68,0.00,,,0.00,VWS V14.01,2013-01-26 14:41:00,
2013-01-26 06:46:00,41.7,32.3,29.85,ESE,123,3.1,8.1,69,0.00,,,0.00,VWS V14.01,2013-01-26 14:46:00,
2013-01-26 06:51:00,41.5,32.1,29.85,East,87,5.4,6.3,69,0.00,,,0.00,VWS V14.01,2013-01-26 14:51:00,
2013-01-26 06:56:00,41.5,32.1,29.85,East,98,6.3,6.3,69,0.00,,,0.00,VWS V14.01,2013-01-26 14:56:00,
2013-01-26 07:01:00,41.5,32.5,29.85,NNE,19,3.6,7.6,70,0.00,,,0.00,VWS V14.01,2013-01-26 15:01:00,
2013-01-26 07:06:00,41.4,32.3,29.85,East,93,4.0,7.6,70,0.00,,,0.00,VWS V14.01,2013-01-26 15:06:00,
2013-01-26 07:11:00,41.5,32.5,29.85,ENE,74,3.6,7.6,70,0.00,,,0.00,VWS V14.01,2013-01-26 15:11:00,
2013-01-26 07:16:00,41.5,32.8,29.85,North,11,0.0,5.8,71,0.00,,,0.00,VWS V14.01,2013-01-26 15:16:00,
2013-01-26 07:21:00,41.5,32.8,29.85,ESE,109,4.0,8.3,71,0.00,,,0.00,VWS V14.01,2013-01-26 15:21:00,
2013-01-26 07:26:00,41.5,32.8,29.85,North,357,6.3,7.6,71,0.00,,,0.00,VWS V14.01,2013-01-26 15:26:00,
2013-01-26 07:31:00,41.5,32.8,29.85,ENE,71,0.0,5.8,71,0.00,,,0.00,VWS V14.01,2013-01-26 15:31:00,
2013-01-26 07:36:00,41.5,32.5,29.85,East,82,3.1,6.7,70,0.00,,,0.00,VWS V14.01,2013-01-26 15:36:00,
2013-01-26 07:41:00,41.5,32.5,29.85,ENE,63,4.0,6.7,70,0.00,,,0.00,VWS V14.01,2013-01-26 15:41:00,
2013-01-26 07:46:00,41.5,32.5,29.85,East,101,5.4,6.7,70,0.00,,,0.00,VWS V14.01,2013-01-26 15:46:00,
2013-01-26 07:51:00,41.5,32.5,29.85,ESE,122,2.7,7.6,70,0.00,,,0.00,VWS V14.01,2013-01-26 15:51:00,
2013-01-26 07:56:00,41.5,32.5,29.85,NE,43,9.6,9.6,70,0.00,,,0.00,VWS V14.01,2013-01-26 15:56:00,
2013-01-26 08:01:00,41.4,32.3,29.85,SE,133,8.7,8.7,70,0.00,,,0.00,VWS V14.01,2013-01-26 16:01:00,
2013-01-26 08:06:00,41.4,32.3,29.85,NE,41,0.0,6.3,70,0.00,,,0.00,VWS V14.01,2013-01-26 16:06:00,
2013-01-26 08:11:00,41.2,32.2,29.85,East,100,0.0,5.8,70,0.00,,,0.00,VWS V14.01,2013-01-26 16:11:00,
2013-01-26 08:16:00,41.2,32.2,29.85,East,89,4.9,8.1,70,0.00,,,0.00,VWS V14.01,2013-01-26 16:16:00,
2013-01-26 08:21:00,41.2,32.2,29.85,ESE,103,2.7,5.8,70,0.00,,,0.00,VWS V14.01,2013-01-26 16:21:00,
2013-01-26 08:26:00,41.2,32.2,29.85,ESE,106,5.4,7.2,70,0.00,,,0.00,VWS V14.01,2013-01-26 16:26:00,
2013-01-26 08:31:00,41.2,32.2,29.85,East,86,2.2,8.1,70,0.00,,,0.00,VWS V14.01,2013-01-26 16:31:00,
2013-01-26 08:36:00,41.0,32.3,29.85,East,83,4.0,8.1,71,0.00,,,0.00,VWS V14.01,2013-01-26 16:36:00,
2013-01-26 08:41:00,41.0,32.3,29.88,ESE,107,2.7,7.6,71,0.00,,,0.00,VWS V14.01,2013-01-26 16:41:00,
2013-01-26 08:46:00,40.8,32.5,29.88,ESE,105,0.0,7.6,72,0.00,,,0.00,VWS V14.01,2013-01-26 16:46:00,
2013-01-26 08:51:00,40.6,32.7,29.88,NE,45,5.8,6.7,73,0.00,,,0.00,VWS V14.01,2013-01-26 16:51:00,
2013-01-26 08:56:00,40.6,33.0,29.88,East,81,0.0,5.4,74,0.00,,,0.00,VWS V14.01,2013-01-26 16:56:00,
2013-01-26 09:01:00,40.5,33.2,29.88,East,81,4.0,7.6,75,0.00,,,0.00,VWS V14.01,2013-01-26 17:01:00,
2013-01-26 09:06:00,40.5,33.2,29.88,East,100,5.8,6.3,75,0.00,,,0.00,VWS V14.01,2013-01-26 17:06:00,
2013-01-26 09:11:00,40.5,33.5,29.88,East,97,5.4,6.3,76,0.00,,,0.00,VWS V14.01,2013-01-26 17:11:00,
2013-01-26 09:16:00,40.5,33.8,29.88,East,88,5.8,6.7,77,0.00,,,0.00,VWS V14.01,2013-01-26 17:16:00,
2013-01-26 09:21:00,40.5,34.2,29.88,East,97,4.9,5.4,78,0.00,,,0.00,VWS V14.01,2013-01-26 17:21:00,
2013-01-26 09:26:00,40.5,34.2,29.88,ENE,69,4.0,5.8,78,0.00,,,0.00,VWS V14.01,2013-01-26 17:26:00,
2013-01-26 09:31:00,40.5,34.5,29.88,East,98,0.0,6.3,79,0.00,,,0.00,VWS V14.01,2013-01-26 17:31:00,
2013-01-26 09:36:00,40.5,34.5,29.88,SE,125,5.4,5.8,79,0.00,,,0.00,VWS V14.01,2013-01-26 17:36:00,
2013-01-26 09:41:00,40.5,34.8,29.88,ENE,75,0.0,5.8,80,0.00,,,0.00,VWS V14.01,2013-01-26 17:41:00,
2013-01-26 09:46:00,40.5,34.8,29.88,ESE,108,5.8,6.3,80,0.00,,,0.00,VWS V14.01,2013-01-26 17:46:00,
2013-01-26 09:51:00,40.5,35.1,29.88,East,92,3.1,6.3,81,0.00,,,0.00,VWS V14.01,2013-01-26 17:51:00,
2013-01-26 09:56:00,40.6,35.3,29.88,East,89,3.1,7.6,81,0.00,,,0.00,VWS V14.01,2013-01-26 17:56:00,
2013-01-26 10:01:00,40.6,35.3,29.88,ESE,102,2.2,5.4,81,0.00,,,0.00,VWS V14.01,2013-01-26 18:01:00,
2013-01-26 10:06:00,40.6,35.3,29.88,East,86,0.0,5.8,81,0.00,,,0.00,VWS V14.01,2013-01-26 18:06:00,
2013-01-26 10:11:00,40.6,35.3,29.88,ENE,76,3.6,10.1,81,0.00,,,0.00,VWS V14.01,2013-01-26 18:11:00,
2013-01-26 10:16:00,40.6,35.3,29.88,ESE,119,5.4,8.3,81,0.00,,,0.00,VWS V14.01,2013-01-26 18:16:00,
2013-01-26 10:21:00,40.6,35.6,29.88,East,79,3.1,8.1,82,0.00,,,0.00,VWS V14.01,2013-01-26 18:21:00,
2013-01-26 10:26:00,40.6,35.6,29.88,East,98,4.0,9.2,82,0.00,,,0.00,VWS V14.01,2013-01-26 18:26:00,
2013-01-26 10:31:00,40.5,35.1,29.88,East,81,0.0,8.3,81,0.00,,,0.00,VWS V14.01,2013-01-26 18:31:00,
2013-01-26 10:36:00,40.5,35.4,29.88,East,91,3.1,6.3,82,0.00,,,0.00,VWS V14.01,2013-01-26 18:36:00,
2013-01-26 10:41:00,40.6,35.6,29.88,ENE,74,0.0,4.9,82,0.00,,,0.00,VWS V14.01,2013-01-26 18:41:00,
2013-01-26 10:46:00,40.6,35.6,29.88,East,81,0.0,4.0,82,0.00,,,0.00,VWS V14.01,2013-01-26 18:46:00,
2013-01-26 10:51:00,40.6,35.6,29.88,East,86,0.0,4.0,82,0.00,,,0.00,VWS V14.01,2013-01-26 18:51:00,
2013-01-26 10:56:00,40.6,35.6,29.88,East,86,0.0,8.1,82,0.00,,,0.00,VWS V14.01,2013-01-26 18:56:00,
2013-01-26 11:01:00,40.6,35.6,29.88,East,86,4.9,5.4,82,0.00,,,0.00,VWS V14.01,2013-01-26 19:01:00,
2013-01-26 11:06:00,40.6,35.6,29.88,East,101,5.4,5.8,82,0.00,,,0.00,VWS V14.01,2013-01-26 19:06:00,
2013-01-26 11:11:00,40.6,35.9,29.88,ESE,104,0.0,4.0,83,0.00,,,0.00,VWS V14.01,2013-01-26 19:11:00,
2013-01-26 11:16:00,40.8,36.1,29.88,East,101,2.7,6.3,83,0.00,,,0.00,VWS V14.01,2013-01-26 19:16:00,
2013-01-26 11:21:00,41.0,36.2,29.88,ENE,58,0.0,5.8,83,0.00,,,0.00,VWS V14.01,2013-01-26 19:21:00,
2013-01-26 11:27:00,41.0,35.9,29.88,East,92,5.4,6.7,82,0.00,,,0.00,VWS V14.01,2013-01-26 19:27:00,
2013-01-26 11:31:00,41.0,35.9,29.88,ESE,114,3.6,7.6,82,0.00,,,0.00,VWS V14.01,2013-01-26 19:31:00,
2013-01-26 11:37:00,41.0,35.9,29.88,East,95,2.7,5.4,82,0.00,,,0.00,VWS V14.01,2013-01-26 19:37:00,
2013-01-26 11:42:00,41.0,35.9,29.88,East,84,7.6,8.1,82,0.00,,,0.00,VWS V14.01,2013-01-26 19:42:00,
2013-01-26 11:47:00,40.8,35.8,29.88,ESE,116,3.1,5.8,82,0.00,,,0.00,VWS V14.01,2013-01-26 19:47:00,
2013-01-26 11:52:00,41.2,36.1,29.88,SE,127,4.0,4.0,82,0.00,,,0.04,VWS V14.01,2013-01-26 19:52:00,
2013-01-26 11:57:00,41.2,35.5,29.88,SE,138,3.1,6.3,80,0.00,,,0.00,VWS V14.01,2013-01-26 19:57:00,
2013-01-26 12:02:00,41.2,35.2,29.88,ESE,114,3.6,5.8,79,0.00,,,0.00,VWS V14.01,2013-01-26 20:02:00,
2013-01-26 12:07:00,41.2,35.2,29.88,SE,126,4.9,4.9,79,0.00,,,0.00,VWS V14.01,2013-01-26 20:07:00,
2013-01-26 12:12:00,41.2,35.2,29.88,SE,135,3.1,7.6,79,0.00,,,0.00,VWS V14.01,2013-01-26 20:12:00,
2013-01-26 12:17:00,41.0,35.0,29.88,ESE,107,3.1,7.6,79,0.00,,,0.00,VWS V14.01,2013-01-26 20:17:00,
2013-01-26 12:22:00,41.0,34.7,29.88,East,95,3.1,8.3,78,0.00,,,0.00,VWS V14.01,2013-01-26 20:22:00,
2013-01-26 12:27:00,41.2,34.8,29.88,East,99,4.9,6.3,78,0.00,,,0.00,VWS V14.01,2013-01-26 20:27:00,
2013-01-26 12:32:00,41.2,34.5,29.88,ESE,114,3.6,6.3,77,0.00,,,0.00,VWS V14.01,2013-01-26 20:32:00,
2013-01-26 12:37:00,41.4,34.7,29.88,ESE,112,0.0,5.4,77,0.00,,,0.00,VWS V14.01,2013-01-26 20:37:00,
2013-01-26 12:42:00,41.7,34.7,29.88,SE,125,0.0,4.9,76,0.00,,,0.00,VWS V14.01,2013-01-26 20:42:00,
2013-01-26 12:47:00,41.9,34.6,29.88,East,90,0.0,5.4,75,0.00,,,0.00,VWS V14.01,2013-01-26 20:47:00,
2013-01-26 12:52:00,42.1,33.7,29.88,ESE,116,0.0,6.3,72,0.00,,,0.00,VWS V14.01,2013-01-26 20:52:00,
2013-01-26 12:57:00,42.3,33.5,29.88,SE,134,0.0,4.9,71,0.00,,,0.00,VWS V14.01,2013-01-26 20:57:00,
2013-01-26 13:02:00,42.4,33.4,29.88,ESE,107,3.1,5.8,70,0.00,,,0.00,VWS V14.01,2013-01-26 21:02:00,
2013-01-26 13:07:00,42.4,33.4,29.88,SE,131,5.4,7.6,70,0.00,,,0.00,VWS V14.01,2013-01-26 21:07:00,
2013-01-26 13:12:00,42.4,33.0,29.88,East,85,2.2,5.4,69,0.00,,,0.00,VWS V14.01,2013-01-26 21:12:00,
2013-01-26 13:17:00,42.3,32.5,29.88,ESE,105,0.0,5.4,68,0.00,,,0.00,VWS V14.01,2013-01-26 21:17:00,
2013-01-26 13:22:00,42.3,32.8,29.88,ENE,70,0.0,5.4,69,0.00,,,0.00,VWS V14.01,2013-01-26 21:22:00,
2013-01-26 13:27:00,42.3,32.5,29.88,ESE,116,2.7,8.7,68,0.00,,,0.00,VWS V14.01,2013-01-26 21:27:00,
2013-01-26 13:32:00,42.1,31.9,29.88,East,91,2.7,7.6,67,0.00,,,0.00,VWS V14.01,2013-01-26 21:32:00,
2013-01-26 13:37:00,42.1,31.9,29.88,SE,130,7.6,8.7,67,0.00,,,0.00,VWS V14.01,2013-01-26 21:37:00,
2013-01-26 13:42:00,41.7,31.6,29.88,ENE,78,6.3,8.3,67,0.00,,,0.00,VWS V14.01,2013-01-26 21:42:00,
2013-01-26 13:47:00,41.7,31.6,29.88,ESE,112,0.0,6.3,67,0.00,,,0.00,VWS V14.01,2013-01-26 21:47:00,
2013-01-26 13:52:00,41.7,31.6,29.88,ESE,104,3.1,4.9,67,0.00,,,0.00,VWS V14.01,2013-01-26 21:52:00,
2013-01-26 13:57:00,41.7,31.6,29.88,East,101,5.4,6.3,67,0.00,,,0.00,VWS V14.01,2013-01-26 21:57:00,
2013-01-26 14:02:00,41.7,30.8,29.88,SE,128,6.3,9.2,65,0.00,,,0.00,VWS V14.01,2013-01-26 22:02:00,
2013-01-26 14:07:00,41.7,30.1,29.88,East,96,4.9,6.3,63,0.00,,,0.00,VWS V14.01,2013-01-26 22:07:00,
2013-01-26 14:12:00,41.5,29.9,29.88,ESE,119,2.7,8.1,63,0.00,,,0.00,VWS V14.01,2013-01-26 22:12:00,
2013-01-26 14:17:00,41.9,30.6,29.88,East,88,5.8,6.3,64,0.00,,,0.00,VWS V14.01,2013-01-26 22:17:00,
2013-01-26 14:22:00,41.9,30.6,29.88,ESE,107,4.0,6.7,64,0.00,,,0.00,VWS V14.01,2013-01-26 22:22:00,
2013-01-26 14:27:00,42.1,30.8,29.88,ESE,112,0.0,4.0,64,0.00,,,0.00,VWS V14.01,2013-01-26 22:27:00,
2013-01-26 14:32:00,42.6,31.7,29.88,ESE,105,3.1,6.3,65,0.00,,,0.00,VWS V14.01,2013-01-26 22:32:00,
2013-01-26 14:37:00,42.8,31.9,29.88,East,92,0.0,5.4,65,0.00,,,0.00,VWS V14.01,2013-01-26 22:37:00,
2013-01-26 14:42:00,42.8,31.5,29.88,East,101,3.1,6.3,64,0.00,,,0.00,VWS V14.01,2013-01-26 22:42:00,
2013-01-26 14:47:00,42.6,30.9,29.88,SSE,149,2.7,6.3,63,0.00,,,0.00,VWS V14.01,2013-01-26 22:47:00,
2013-01-26 14:52:00,42.3,30.2,29.88,East,92,5.4,8.3,62,0.00,,,0.00,VWS V14.01,2013-01-26 22:52:00,
2013-01-26 14:57:00,42.1,30.0,29.91,ESE,113,3.6,7.6,62,0.00,,,0.00,VWS V14.01,2013-01-26 22:57:00,
2013-01-26 15:02:00,42.1,30.4,29.91,East,80,4.9,6.3,63,0.00,,,0.00,VWS V14.01,2013-01-26 23:02:00,
2013-01-26 15:07:00,42.1,30.4,29.91,ENE,72,0.0,5.4,63,0.00,,,0.00,VWS V14.01,2013-01-26 23:07:00,
2013-01-26 15:12:00,42.3,30.6,29.91,ESE,113,0.0,5.8,63,0.00,,,0.00,VWS V14.01,2013-01-26 23:12:00,
2013-01-26 15:17:00,42.3,30.6,29.91,ESE,108,4.9,4.9,63,0.00,,,0.00,VWS V14.01,2013-01-26 23:17:00,
2013-01-26 15:22:00,42.3,30.2,29.91,ESE,113,2.7,4.9,62,0.00,,,0.00,VWS V14.01,2013-01-26 23:22:00,
2013-01-26 15:27:00,42.1,29.6,29.91,SE,126,2.7,6.3,61,0.00,,,0.00,VWS V14.01,2013-01-26 23:27:00,
2013-01-26 15:32:00,42.1,29.6,29.91,SE,129,0.0,4.0,61,0.00,,,0.00,VWS V14.01,2013-01-26 23:32:00,
2013-01-26 15:37:00,42.3,29.8,29.91,ESE,103,4.0,5.4,61,0.00,,,0.00,VWS V14.01,2013-01-26 23:37:00,
2013-01-26 15:42:00,42.3,30.2,29.91,East,96,0.0,4.9,62,0.00,,,0.00,VWS V14.01,2013-01-26 23:42:00,
2013-01-26 15:47:00,42.3,30.2,29.91,East,93,0.0,4.0,62,0.00,,,0.00,VWS V14.01,2013-01-26 23:47:00,
2013-01-26 15:52:00,42.3,30.2,29.91,ESE,114,5.8,6.3,62,0.00,,,0.00,VWS V14.01,2013-01-26 23:52:00,
2013-01-26 15:57:00,42.1,30.0,29.91,ESE,103,3.1,5.8,62,0.00,,,0.00,VWS V14.01,2013-01-26 23:57:00,
2013-01-26 16:02:00,42.1,30.4,29.91,East,95,3.1,5.4,63,0.00,,,0.00,VWS V14.01,2013-01-27 00:02:00,
2013-01-26 16:07:00,42.1,30.4,29.91,East,100,0.0,0.0,63,0.00,,,0.00,VWS V14.01,2013-01-27 00:07:00,
2013-01-26 16:12:00,42.1,30.4,29.91,SE,125,0.0,0.0,63,0.00,,,0.00,VWS V14.01,2013-01-27 00:12:00,
2013-01-26 16:18:00,42.1,30.4,29.91,ESE,109,2.2,5.8,63,0.00,,,0.00,VWS V14.01,2013-01-27 00:18:00,
2013-01-26 16:23:00,41.9,30.6,29.91,ESE,111,4.0,4.9,64,0.00,,,0.00,VWS V14.01,2013-01-27 00:23:00,
2013-01-26 16:28:00,41.7,30.5,29.91,SE,138,3.6,5.8,64,0.00,,,0.00,VWS V14.01,2013-01-27 00:28:00,
2013-01-26 16:33:00,41.5,30.7,29.91,ESE,116,4.0,5.4,65,0.00,,,0.00,VWS V14.01,2013-01-27 00:33:00,
2013-01-26 16:38:00,41.5,31.0,29.91,East,97,0.0,3.6,66,0.00,,,0.00,VWS V14.01,2013-01-27 00:38:00,
2013-01-26 16:43:00,41.5,31.0,29.91,East,91,0.0,0.0,66,0.00,,,0.00,VWS V14.01,2013-01-27 00:43:00,
2013-01-26 16:48:00,41.5,31.4,29.91,East,91,2.2,4.0,67,0.00,,,0.00,VWS V14.01,2013-01-27 00:48:00,
2013-01-26 16:53:00,41.5,31.4,29.91,ESE,103,0.0,4.9,67,0.00,,,0.00,VWS V14.01,2013-01-27 00:53:00,
2013-01-26 16:58:00,41.5,31.8,29.91,East,100,0.0,0.0,68,0.00,,,0.00,VWS V14.01,2013-01-27 00:58:00,
2013-01-26 17:03:00,41.4,31.6,29.91,East,91,0.0,0.0,68,0.00,,,0.00,VWS V14.01,2013-01-27 01:03:00,
2013-01-26 17:08:00,41.2,31.4,29.91,East,96,0.0,0.0,68,0.00,,,0.00,VWS V14.01,2013-01-27 01:08:00,
2013-01-26 17:13:00,41.2,31.4,29.91,East,88,0.0,0.0,68,0.00,,,0.00,VWS V14.01,2013-01-27 01:13:00,
2013-01-26 17:18:00,41.0,31.6,29.91,East,89,0.0,0.0,69,0.00,,,0.00,VWS V14.01,2013-01-27 01:18:00,
2013-01-26 17:23:00,41.0,31.6,29.91,East,96,0.0,0.0,69,0.00,,,0.00,VWS V14.01,2013-01-27 01:23:00,
2013-01-26 17:28:00,40.8,31.8,29.91,ESE,110,0.0,0.0,70,0.00,,,0.00,VWS V14.01,2013-01-27 01:28:00,
2013-01-26 17:33:00,40.8,32.2,29.91,ESE,102,0.0,0.0,71,0.00,,,0.00,VWS V14.01,2013-01-27 01:33:00,
2013-01-26 17:38:00,40.6,32.0,29.91,ESE,107,0.0,0.0,71,0.00,,,0.00,VWS V14.01,2013-01-27 01:38:00,
2013-01-26 17:43:00,40.6,32.0,29.94,East,85,0.0,0.0,71,0.00,,,0.00,VWS V14.01,2013-01-27 01:43:00,
2013-01-26 17:48:00,40.6,32.3,29.94,ESE,113,0.0,0.0,72,0.00,,,0.00,VWS V14.01,2013-01-27 01:48:00,
2013-01-26 17:53:00,40.6,32.3,29.94,ESE,113,0.0,0.0,72,0.00,,,0.00,VWS V14.01,2013-01-27 01:53:00,
2013-01-26 17:58:00,40.5,32.2,29.94,East,84,0.0,0.0,72,0.00,,,0.00,VWS V14.01,2013-01-27 01:58:00,
2013-01-26 18:03:00,40.5,32.2,29.94,East,91,0.0,0.0,72,0.00,,,0.00,VWS V14.01,2013-01-27 02:03:00,
2013-01-26 18:08:00,40.5,32.2,29.94,East,85,0.0,0.0,72,0.00,,,0.00,VWS V14.01,2013-01-27 02:08:00,
2013-01-26 18:13:00,40.5,32.5,29.94,SE,127,3.1,3.1,73,0.00,,,0.00,VWS V14.01,2013-01-27 02:13:00,
2013-01-26 18:18:00,40.3,32.3,29.94,East,84,0.0,2.7,73,0.00,,,0.00,VWS V14.01,2013-01-27 02:18:00,
2013-01-26 18:23:00,40.3,32.3,29.94,East,97,0.0,0.0,73,0.00,,,0.00,VWS V14.01,2013-01-27 02:23:00,
2013-01-26 18:28:00,40.3,32.3,29.94,East,93,0.0,4.0,73,0.00,,,0.00,VWS V14.01,2013-01-27 02:28:00,
2013-01-26 18:33:00,40.3,32.3,29.94,East,92,0.0,0.0,73,0.00,,,0.00,VWS V14.01,2013-01-27 02:33:00,
2013-01-26 18:38:00,40.3,32.7,29.94,East,87,0.0,0.0,74,0.00,,,0.00,VWS V14.01,2013-01-27 02:38:00,
2013-01-26 18:43:00,40.3,32.7,29.94,East,92,0.0,0.0,74,0.00,,,0.00,VWS V14.01,2013-01-27 02:43:00,
2013-01-26 18:48:00,40.3,32.7,29.94,East,93,0.0,0.0,74,0.00,,,0.00,VWS V14.01,2013-01-27 02:48:00,
2013-01-26 18:53:00,40.3,32.7,29.94,East,87,0.0,0.0,74,0.00,,,0.00,VWS V14.01,2013-01-27 02:53:00,
2013-01-26 18:58:00,40.3,32.7,29.94,ESE,104,0.0,0.0,74,0.00,,,0.00,VWS V14.01,2013-01-27 02:58:00,
2013-01-26 19:03:00,40.3,32.7,29.94,East,88,0.0,0.0,74,0.00,,,0.00,VWS V14.01,2013-01-27 03:03:00,
2013-01-26 19:08:00,40.1,32.5,29.94,East,88,0.0,0.0,74,0.00,,,0.00,VWS V14.01,2013-01-27 03:08:00,
2013-01-26 19:13:00,40.1,32.5,29.94,East,92,0.0,0.0,74,0.00,,,0.00,VWS V14.01,2013-01-27 03:13:00,
2013-01-26 19:18:00,40.1,32.5,29.94,East,91,0.0,0.0,74,0.00,,,0.00,VWS V14.01,2013-01-27 03:18:00,
2013-01-26 19:23:00,39.9,32.3,29.94,East,91,0.0,0.0,74,0.00,,,0.00,VWS V14.01,2013-01-27 03:23:00,
2013-01-26 19:28:00,39.9,32.3,29.94,East,92,0.0,0.0,74,0.00,,,0.00,VWS V14.01,2013-01-27 03:28:00,
2013-01-26 19:33:00,39.9,32.7,29.94,East,91,0.0,0.0,75,0.00,,,0.00,VWS V14.01,2013-01-27 03:33:00,
2013-01-26 19:38:00,39.9,32.7,29.94,East,90,0.0,0.0,75,0.00,,,0.00,VWS V14.01,2013-01-27 03:38:00,
2013-01-26 19:43:00,39.7,32.5,29.94,East,90,0.0,0.0,75,0.00,,,0.00,VWS V14.01,2013-01-27 03:43:00,
2013-01-26 19:49:00,39.7,32.5,29.94,East,91,0.0,0.0,75,0.00,,,0.00,VWS V14.01,2013-01-27 03:49:00,
2013-01-26 19:54:00,39.9,32.7,29.94,East,91,0.0,0.0,75,0.00,,,0.00,VWS V14.01,2013-01-27 03:54:00,
2013-01-26 19:59:00,39.9,32.7,29.97,East,92,0.0,0.0,75,0.00,,,0.00,VWS V14.01,2013-01-27 03:59:00,
2013-01-26 20:04:00,39.9,32.7,29.97,East,92,0.0,0.0,75,0.00,,,0.00,VWS V14.01,2013-01-27 04:04:00,
2013-01-26 20:09:00,39.9,32.7,29.97,East,91,0.0,0.0,75,0.00,,,0.00,VWS V14.01,2013-01-27 04:09:00,
2013-01-26 20:14:00,40.1,32.8,29.97,East,92,0.0,0.0,75,0.00,,,0.00,VWS V14.01,2013-01-27 04:14:00,
2013-01-26 20:19:00,40.1,32.8,29.97,East,91,0.0,0.0,75,0.00,,,0.00,VWS V14.01,2013-01-27 04:19:00,
2013-01-26 20:24:00,40.1,32.8,29.97,East,90,0.0,0.0,75,0.00,,,0.00,VWS V14.01,2013-01-27 04:24:00,
2013-01-26 20:29:00,40.1,33.2,29.94,East,92,0.0,0.0,76,0.00,,,0.00,VWS V14.01,2013-01-27 04:29:00,
2013-01-26 20:34:00,40.1,33.2,29.94,East,95,0.0,0.0,76,0.00,,,0.00,VWS V14.01,2013-01-27 04:34:00,
2013-01-26 20:39:00,40.1,33.2,29.94,East,95,0.0,0.0,76,0.00,,,0.00,VWS V14.01,2013-01-27 04:39:00,
2013-01-26 20:44:00,40.1,33.2,29.97,East,95,0.0,0.0,76,0.00,,,0.00,VWS V14.01,2013-01-27 04:44:00,
2013-01-26 20:49:00,40.1,33.2,29.97,East,95,0.0,0.0,76,0.00,,,0.00,VWS V14.01,2013-01-27 04:49:00,
2013-01-26 20:54:00,40.1,33.2,29.97,East,95,0.0,0.0,76,0.00,,,0.00,VWS V14.01,2013-01-27 04:54:00,
2013-01-26 20:59:00,39.9,33.0,29.97,East,84,0.0,0.0,76,0.00,,,0.00,VWS V14.01,2013-01-27 04:59:00,
2013-01-26 21:00:00,39.9,33.0,29.97,East,85,0.0,0.0,76,0.00,,,0.00,VWS V14.01,2013-01-27 05:00:00,
2013-01-26 21:01:00,39.9,33.0,29.97,East,83,0.0,0.0,76,0.00,,,0.00,VWS V14.01,2013-01-27 05:01:00,
2013-01-26 21:07:00,39.9,33.0,29.97,East,83,0.0,0.0,76,0.00,,,0.00,VWS V14.01,2013-01-27 05:07:00,
2013-01-26 21:12:00,39.9,33.0,29.97,East,83,0.0,0.0,76,0.00,,,0.00,VWS V14.01,2013-01-27 05:12:00,
2013-01-26 21:17:00,40.1,33.2,29.97,East,84,0.0,0.0,76,0.00,,,0.00,VWS V14.01,2013-01-27 05:17:00,
2013-01-26 21:22:00,39.9,33.0,29.97,East,87,0.0,0.0,76,0.00,,,0.00,VWS V14.01,2013-01-27 05:22:00,
2013-01-26 21:27:00,39.9,33.0,29.97,East,85,0.0,0.0,76,0.00,,,0.00,VWS V14.01,2013-01-27 05:27:00,
2013-01-26 21:32:00,39.9,33.0,29.97,East,85,0.0,0.0,76,0.00,,,0.00,VWS V14.01,2013-01-27 05:32:00,
2013-01-26 21:37:00,39.9,33.0,29.97,East,87,0.0,0.0,76,0.00,,,0.00,VWS V14.01,2013-01-27 05:37:00,
2013-01-26 21:42:00,39.9,33.0,29.97,ESE,108,0.0,0.0,76,0.00,,,0.00,VWS V14.01,2013-01-27 05:42:00,
2013-01-26 21:47:00,39.9,32.7,29.97,ESE,111,0.0,0.0,75,0.00,,,0.00,VWS V14.01,2013-01-27 05:47:00,
2013-01-26 21:52:00,39.9,32.7,29.97,ESE,102,0.0,0.0,75,0.00,,,0.00,VWS V14.01,2013-01-27 05:52:00,
2013-01-26 21:57:00,39.9,32.7,29.97,ESE,102,0.0,0.0,75,0.00,,,0.00,VWS V14.01,2013-01-27 05:57:00,
2013-01-26 22:02:00,39.7,32.8,29.97,ESE,103,0.0,0.0,76,0.00,,,0.00,VWS V14.01,2013-01-27 06:02:00,
2013-01-26 22:07:00,39.9,33.0,29.97,East,101,0.0,0.0,76,0.00,,,0.00,VWS V14.01,2013-01-27 06:07:00,
2013-01-26 22:12:00,39.9,33.0,29.97,ESE,102,0.0,0.0,76,0.00,,,0.00,VWS V14.01,2013-01-27 06:12:00,
2013-01-26 22:17:00,39.9,33.0,29.97,East,96,0.0,0.0,76,0.00,,,0.00,VWS V14.01,2013-01-27 06:17:00,
2013-01-26 22:22:00,39.9,33.0,29.97,ESE,105,0.0,0.0,76,0.00,,,0.00,VWS V14.01,2013-01-27 06:22:00,
2013-01-26 22:27:00,39.9,33.0,29.97,ESE,106,0.0,0.0,76,0.00,,,0.00,VWS V14.01,2013-01-27 06:27:00,
2013-01-26 22:32:00,39.9,33.0,29.97,ESE,113,0.0,0.0,76,0.00,,,0.00,VWS V14.01,2013-01-27 06:32:00,
2013-01-26 22:37:00,39.9,33.0,29.97,East,98,0.0,0.0,76,0.00,,,0.00,VWS V14.01,2013-01-27 06:37:00,
2013-01-26 22:42:00,39.7,32.8,30.00,ESE,110,0.0,0.0,76,0.00,,,0.00,VWS V14.01,2013-01-27 06:42:00,
2013-01-26 22:47:00,39.7,32.8,30.00,East,98,0.0,0.0,76,0.00,,,0.00,VWS V14.01,2013-01-27 06:47:00,
2013-01-26 22:52:00,39.7,33.1,30.00,ESE,112,0.0,0.0,77,0.00,,,0.00,VWS V14.01,2013-01-27 06:52:00,
2013-01-26 22:57:00,39.7,33.1,30.00,ESE,104,0.0,0.0,77,0.00,,,0.00,VWS V14.01,2013-01-27 06:57:00,
2013-01-26 23:02:00,39.7,33.1,30.00,East,101,0.0,0.0,77,0.00,,,0.00,VWS V14.01,2013-01-27 07:02:00,
2013-01-26 23:07:00,39.6,33.0,30.00,ESE,115,0.0,0.0,77,0.00,,,0.00,VWS V14.01,2013-01-27 07:07:00,
2013-01-26 23:13:00,39.4,32.8,30.00,East,95,0.0,0.0,77,0.00,,,0.00,VWS V14.01,2013-01-27 07:13:00,
2013-01-26 23:18:00,39.4,32.8,30.00,ESE,104,0.0,0.0,77,0.00,,,0.00,VWS V14.01,2013-01-27 07:18:00,
2013-01-26 23:23:00,39.4,33.1,30.00,ESE,103,0.0,0.0,78,0.00,,,0.00,VWS V14.01,2013-01-27 07:23:00,
2013-01-26 23:28:00,39.2,32.9,30.00,ESE,105,0.0,0.0,78,0.00,,,0.00,VWS V14.01,2013-01-27 07:28:00,
2013-01-26 23:33:00,39.2,32.9,30.00,ESE,103,0.0,0.0,78,0.00,,,0.00,VWS V14.01,2013-01-27 07:33:00,
2013-01-26 23:38:00,39.2,32.9,30.00,ESE,103,0.0,0.0,78,0.00,,,0.00,VWS V14.01,2013-01-27 07:38:00,
2013-01-26 23:43:00,39.2,33.2,30.00,ESE,104,0.0,0.0,79,0.00,,,0.00,VWS V14.01,2013-01-27 07:43:00,
2013-01-26 23:48:00,39.2,33.2,30.00,ESE,103,0.0,0.0,79,0.00,,,0.00,VWS V14.01,2013-01-27 07:48:00,
2013-01-26 23:53:00,39.2,33.2,30.00,ESE,103,0.0,0.0,79,0.00,,,0.00,VWS V14.01,2013-01-27 07:53:00,
2013-01-26 23:58:00,39.2,33.6,30.00,ESE,105,0.0,0.0,80,0.00,,,0.00,VWS V14.01,2013-01-27 07:58:00,